QPF
0.02 0.05 0.12 0.12 0.10 0.06 0.03 0.01 0.01 0.00 0.00 0.01 0.01 0.02 0.04 0.05 0.08 0.18 0.26 0.23 0.15 0.12 0.11 0.11 0.12 0.11 0.08 0.07 0.09 0.09 0.08 0.08 0.08 0.08 0.10 0.11 0.13 0.09 0.07 0.08 0.10 0.11 0.09 0.06 0.07 0.08 0.07 0.06 0.05
0.04 0.08 0.17 0.15 0.07 0.03 0.02 0.01 0.00 0.00 0.00 0.01 0.01 0.02 0.05 0.06 0.08 0.19 0.30 0.28 0.17 0.11 0.10 0.10 0.09 0.07 0.05 0.03 0.04 0.05 0.06 0.06 0.08 0.10 0.09 0.09 0.10 0.07 0.05 0.06 0.06 0.06 0.06 0.04 0.04 0.04 0.04 0.04 0.03
0.06 0.10 0.12 0.09 0.04 0.02 0.01 0.00 0.00 0.00 0.00 0.00 0.01 0.02 0.04 0.07 0.10 0.18 0.23 0.21 0.12 0.08 0.07 0.09 0.07 0.05 0.03 0.03 0.03 0.03 0.04 0.06 0.08 0.09 0.08 0.07 0.06 0.04 0.04 0.06 0.05 0.05 0.05 0.04 0.04 0.04 0.03 0.03 0.02
0.06 0.09 0.12 0.06 0.02 0.00 0.00 0.00 0.00 0.00 0.00 0.01 0.02 0.04 0.05 0.06 0.09 0.13 0.13 0.11 0.07 0.06 0.06 0.06 0.05 0.03 0.02 0.02 0.03 0.03 0.04 0.05 0.06 0.08 0.08 0.06 0.05 0.04 0.05 0.06 0.06 0.05 0.04 0.03 0.03 0.03 0.03 0.02 0.02
0.05 0.06 0.08 0.03 0.01 0.00 0.00 0.00 0.00 0.00 0.00 0.01 0.04 0.08 0.09 0.08 0.07 0.08 0.08 0.07 0.04 0.04 0.04 0.05 0.04 0.02 0.03 0.03 0.03 0.04 0.05 0.07 0.09 0.10 0.07 0.04 0.04 0.04 0.05 0.05 0.04 0.03 0.03 0.02 0.02 0.02 0.02 0.02 0.02
0.06 0.04 0.05 0.02 0.00 0.00 0.00 0.00 0.00 0.00 0.01 0.02 0.04 0.07 0.11 0.09 0.06 0.04 0.04 0.04 0.03 0.02 0.02 0.03 0.04 0.03 0.04 0.05 0.04 0.05 0.08 0.11 0.11 0.08 0.06 0.04 0.03 0.04 0.04 0.04 0.03 0.03 0.02 0.02 0.01 0.02 0.01 0.01 0.02
0.04 0.03 0.03 0.01 0.00 0.00 0.00 0.00 0.00 0.00 0.02 0.03 0.06 0.09 0.14 0.10 0.05 0.03 0.03 0.03 0.04 0.03 0.02 0.04 0.04 0.05 0.06 0.06 0.07 0.09 0.12 0.13 0.10 0.07 0.05 0.03 0.03 0.04 0.05 0.05 0.04 0.03 0.02 0.02 0.01 0.02 0.01 0.01 0.02
0.02 0.02 0.02 0.00 0.00 0.00 0.00 0.00 0.00 0.01 0.04 0.05 0.07 0.10 0.14 0.10 0.04 0.03 0.03 0.04 0.06 0.06 0.06 0.08 0.08 0.06 0.07 0.09 0.16 0.16 0.13 0.10 0.08 0.07 0.05 0.04 0.05 0.07 0.07 0.05 0.04 0.03 0.03 0.03 0.03 0.02 0.01 0.01 0.01
0.01 0.02 0.01 0.00 0.00 0.00 0.00 0.00 0.00 0.02 0.06 0.09 0.10 0.10 0.10 0.07 0.04 0.02 0.02 0.03 0.04 0.05 0.06 0.09 0.14 0.15 0.13 0.12 0.15 0.14 0.12 0.10 0.08 0.07 0.07 0.06 0.06 0.08 0.07 0.05 0.05 0.06 0.06 0.06 0.04 0.03 0.04 0.04 0.03
0.01 0.01 0.01 0.00 0.00 0.00 0.00 0.00 0.01 0.03 0.06 0.08 0.08 0.08 0.06 0.04 0.03 0.02 0.02 0.03 0.03 0.04 0.05 0.05 0.12 0.17 0.15 0.11 0.09 0.08 0.08 0.07 0.06 0.05 0.06 0.07 0.08 0.07 0.05 0.07 0.08 0.08 0.08 0.08 0.06 0.05 0.05 0.03 0.05
0.01 0.01 0.01 0.00 0.00 0.00 0.00 0.00 0.01 0.02 0.05 0.07 0.08 0.07 0.05 0.03 0.02 0.01 0.01 0.02 0.03 0.04 0.04 0.04 0.08 0.12 0.13 0.13 0.10 0.09 0.07 0.06 0.06 0.05 0.06 0.08 0.06 0.06 0.07 0.07 0.08 0.08 0.07 0.07 0.07 0.05 0.03 0.04 0.07
0.01 0.01 0.00 0.00 0.00 0.00 0.00 0.00 0.01 0.02 0.05 0.07 0.06 0.05 0.02 0.01 0.01 0.01 0.02 0.03 0.04 0.04 0.04 0.04 0.05 0.07 0.08 0.11 0.10 0.09 0.08 0.08 0.08 0.06 0.05 0.04 0.04 0.05 0.07 0.07 0.07 0.08 0.07 0.06 0.07 0.04 0.03 0.05 0.06
0.03 0.01 0.01 0.00 0.01 0.00 0.00 0.00 0.00 0.01 0.03 0.05 0.06 0.04 0.02 0.01 0.01 0.01 0.01 0.02 0.03 0.04 0.04 0.04 0.04 0.05 0.05 0.06 0.08 0.11 0.10 0.09 0.07 0.05 0.05 0.04 0.04 0.06 0.07 0.07 0.07 0.08 0.07 0.06 0.05 0.04 0.04 0.05 0.05
0.02 0.02 0.01 0.01 0.01 0.01 0.00 0.00 0.00 0.01 0.02 0.04 0.05 0.05 0.03 0.02 0.01 0.01 0.01 0.02 0.02 0.03 0.03 0.02 0.03 0.03 0.04 0.06 0.07 0.11 0.08 0.07 0.06 0.06 0.06 0.05 0.06 0.06 0.06 0.06 0.06 0.06 0.05 0.04 0.04 0.04 0.05 0.05 0.06
0.01 0.02 0.01 0.01 0.01 0.01 0.01 0.00 0.00 0.00 0.01 0.03 0.03 0.03 0.02 0.01 0.01 0.00 0.01 0.01 0.01 0.01 0.02 0.02 0.01 0.02 0.03 0.04 0.06 0.07 0.06 0.06 0.07 0.07 0.07 0.07 0.08 0.07 0.06 0.06 0.05 0.04 0.04 0.04 0.03 0.04 0.04 0.04 0.05
0.01 0.02 0.03 0.02 0.02 0.01 0.01 0.01 0.01 0.00 0.01 0.01 0.01 0.01 0.01 0.01 0.01 0.00 0.00 0.00 0.00 0.01 0.01 0.01 0.01 0.02 0.03 0.03 0.03 0.04 0.04 0.05 0.06 0.06 0.07 0.07 0.06 0.06 0.05 0.04 0.04 0.03 0.03 0.04 0.05 0.05 0.06 0.05 0.05
0.02 0.03 0.03 0.04 0.03 0.02 0.01 0.01 0.01 0.01 0.00 0.00 0.00 0.00 0.00 0.00 0.00 0.00 0.00 0.00 0.00 0.01 0.01 0.02 0.02 0.02 0.02 0.02 0.03 0.02 0.03 0.03 0.04 0.05 0.06 0.06 0.05 0.04 0.03 0.02 0.02 0.03 0.03 0.03 0.03 0.05 0.04 0.03 0.04
0.03 0.04 0.03 0.04 0.03 0.02 0.02 0.01 0.01 0.01 0.00 0.00 0.00 0.00 0.00 0.00 0.00 0.00 0.00 0.00 0.00 0.00 0.01 0.02 0.02 0.02 0.01 0.02 0.03 0.04 0.04 0.04 0.04 0.05 0.05 0.04 0.03 0.03 0.02 0.02 0.03 0.03 0.03 0.04 0.04 0.06 0.04 0.03 0.04
0.02 0.03 0.03 0.03 0.03 0.04 0.04 0.02 0.02 0.01 0.01 0.01 0.01 0.01 0.01 0.00 0.01 0.01 0.01 0.00 0.00 0.00 0.01 0.01 0.02 0.02 0.01 0.02 0.03 0.02 0.02 0.03 0.03 0.03 0.03 0.02 0.02 0.02 0.03 0.04 0.07 0.04 0.03 0.04 0.04 0.04 0.04 0.04 0.05
0.02 0.02 0.03 0.03 0.03 0.05 0.06 0.05 0.03 0.02 0.01 0.01 0.01 0.01 0.01 0.01 0.01 0.01 0.01 0.01 0.01 0.01 0.01 0.01 0.01 0.01 0.01 0.01 0.01 0.01 0.01 0.02 0.02 0.04 0.03 0.03 0.02 0.02 0.03 0.03 0.02 0.02 0.03 0.02 0.03 0.05 0.05 0.04 0.04
0.01 0.02 0.03 0.02 0.02 0.05 0.09 0.08 0.06 0.03 0.02 0.01 0.01 0.02 0.01 0.01 0.01 0.00 0.01 0.02 0.01 0.01 0.01 0.00 0.01 0.01 0.01 0.01 0.01 0.02 0.02 0.02 0.03 0.03 0.04 0.03 0.02 0.01 0.02 0.03 0.02 0.02 0.02 0.03 0.05 0.05 0.04 0.04 0.04
0.01 0.01 0.02 0.02 0.02 0.05 0.07 0.07 0.08 0.07 0.04 0.02 0.02 0.02 0.02 0.01 0.01 0.01 0.01 0.01 0.01 0.02 0.02 0.01 0.01 0.02 0.01 0.01 0.01 0.02 0.02 0.03 0.02 0.03 0.04 0.03 0.03 0.03 0.03 0.03 0.03 0.02 0.02 0.03 0.04 0.04 0.03 0.04 0.04
0.01 0.01 0.01 0.01 0.02 0.04 0.06 0.06 0.05 0.05 0.04 0.02 0.02 0.02 0.03 0.02 0.01 0.02 0.03 0.02 0.02 0.04 0.03 0.01 0.01 0.01 0.01 0.01 0.01 0.02 0.03 0.04 0.04 0.04 0.04 0.05 0.04 0.04 0.02 0.03 0.04 0.03 0.01 0.02 0.02 0.02 0.02 0.03 0.02
0.01 0.01 0.01 0.01 0.02 0.06 0.06 0.05 0.06 0.04 0.03 0.02 0.01 0.02 0.03 0.02 0.01 0.01 0.03 0.04 0.04 0.04 0.01 0.00 0.01 0.01 0.01 0.02 0.03 0.04 0.05 0.05 0.04 0.04 0.05 0.04 0.04 0.03 0.02 0.03 0.04 0.03 0.03 0.03 0.01 0.01 0.02 0.02 0.02
0.01 0.01 0.01 0.02 0.02 0.04 0.06 0.04 0.04 0.03 0.03 0.04 0.03 0.02 0.02 0.01 0.01 0.01 0.02 0.02 0.03 0.01 0.01 0.01 0.01 0.01 0.01 0.03 0.04 0.06 0.04 0.03 0.03 0.03 0.03 0.03 0.05 0.05 0.03 0.03 0.04 0.04 0.04 0.03 0.02 0.01 0.01 0.02 0.02
0.01 0.01 0.01 0.01 0.01 0.03 0.07 0.06 0.04 0.03 0.02 0.03 0.03 0.03 0.02 0.01 0.01 0.01 0.01 0.01 0.01 0.01 0.01 0.01 0.01 0.01 0.02 0.02 0.04 0.05 0.04 0.04 0.03 0.02 0.03 0.04 0.04 0.04 0.03 0.03 0.04 0.04 0.03 0.02 0.02 0.01 0.01 0.02 0.02
0.01 0.02 0.02 0.02 0.02 0.03 0.07 0.07 0.04 0.04 0.02 0.02 0.02 0.03 0.03 0.02 0.01 0.01 0.00 0.01 0.01 0.01 0.01 0.00 0.01 0.02 0.02 0.02 0.02 0.04 0.04 0.05 0.05 0.04 0.03 0.03 0.04 0.03 0.03 0.04 0.03 0.03 0.03 0.03 0.02 0.02 0.02 0.02 0.01
0.01 0.01 0.02 0.01 0.02 0.03 0.05 0.07 0.06 0.05 0.03 0.03 0.03 0.03 0.04 0.05 0.03 0.01 0.01 0.01 0.02 0.02 0.01 0.02 0.04 0.04 0.03 0.03 0.04 0.04 0.04 0.07 0.09 0.07 0.04 0.03 0.03 0.03 0.02 0.02 0.02 0.03 0.03 0.03 0.02 0.03 0.02 0.02 0.01
0.01 0.01 0.01 0.01 0.01 0.02 0.04 0.05 0.06 0.07 0.06 0.04 0.04 0.04 0.07 0.07 0.06 0.03 0.03 0.05 0.04 0.02 0.02 0.02 0.02 0.03 0.03 0.03 0.03 0.04 0.04 0.05 0.07 0.05 0.04 0.03 0.02 0.02 0.02 0.02 0.02 0.03 0.03 0.02 0.02 0.01 0.02 0.01 0.01
0.01 0.01 0.01 0.01 0.01 0.01 0.02 0.04 0.05 0.04 0.03 0.03 0.03 0.05 0.09 0.10 0.06 0.04 0.05 0.07 0.03 0.02 0.01 0.01 0.02 0.03 0.04 0.04 0.04 0.05 0.05 0.04 0.04 0.03 0.03 0.02 0.02 0.02 0.02 0.02 0.02 0.02 0.02 0.02 0.01 0.01 0.00 0.00 0.00
MSLP
1007.98 1008.99 1010.23 1011.57 1012.84 1013.89 1014.60 1014.93 1014.91 1014.64 1014.27 1013.95 1013.79 1013.82 1014.02 1014.31 1014.57 1014.68 1014.58 1014.26 1013.76 1013.19 1012.63 1012.20 1011.94 1011.84 1011.86 1011.90 1011.89 1011.76 1011.50 1011.12 1010.70 1010.29 1009.97 1009.75 1009.65 1009.62 1009.62 1009.59 1009.52 1009.41 1009.26 1009.14 1009.08 1009.11 1009.23 1009.42 1009.65
1008.57 1009.77 1011.12 1012.48 1013.68 1014.56 1015.04 1015.12 1014.85 1014.36 1013.81 1013.36 1013.10 1013.08 1013.27 1013.57 1013.88 1014.06 1014.05 1013.84 1013.47 1013.01 1012.56 1012.20 1011.98 1011.91 1011.93 1011.98 1011.98 1011.89 1011.70 1011.42 1011.10 1010.79 1010.55 1010.38 1010.29 1010.24 1010.21 1010.14 1010.04 1009.91 1009.77 1009.67 1009.63 1009.67 1009.78 1009.96 1010.16
1009.22 1010.56 1011.97 1013.29 1014.36 1015.05 1015.32 1015.17 1014.69 1014.03 1013.36 1012.82 1012.51 1012.46 1012.64 1012.95 1013.27 1013.50 1013.57 1013.45 1013.19 1012.84 1012.49 1012.22 1012.06 1012.01 1012.04 1012.09 1012.11 1012.05 1011.92 1011.72 1011.49 1011.27 1011.09 1010.97 1010.88 1010.81 1010.73 1010.62 1010.49 1010.34 1010.20 1010.12 1010.10 1010.16 1010.29 1010.46 1010.64
1009.81 1011.22 1012.62 1013.85 1014.77 1015.29 1015.37 1015.06 1014.46 1013.72 1013.00 1012.45 1012.13 1012.08 1012.24 1012.53 1012.85 1013.09 1013.20 1013.15 1012.98 1012.74 1012.50 1012.32 1012.21 1012.20 1012.23 1012.28 1012.30 1012.26 1012.16 1012.01 1011.85 1011.70 1011.57 1011.47 1011.39 1011.30 1011.19 1011.06 1010.90 1010.75 1010.63 1010.57 1010.59 1010.67 1010.81 1010.98 1011.15
1010.24 1011.65 1012.98 1014.08 1014.85 1015.22 1015.18 1014.80 1014.18 1013.47 1012.80 1012.30 1012.03 1011.99 1012.14 1012.40 1012.67 1012.89 1013.00 1012.99 1012.89 1012.74 1012.60 1012.50 1012.47 1012.48 1012.52 1012.55 1012.55 1012.50 1012.40 1012.28 1012.15 1012.04 1011.94 1011.87 1011.79 1011.70 1011.58 1011.44 1011.29 1011.16 1011.07 1011.05 1011.10 1011.20 1011.35 1011.51 1011.67
1010.49 1011.81 1013.00 1013.95 1014.57 1014.83 1014.75 1014.39 1013.86 1013.28 1012.76 1012.39 1012.21 1012.20 1012.33 1012.54 1012.74 1012.89 1012.97 1012.97 1012.91 1012.84 1012.79 1012.77 1012.79 1012.83 1012.86 1012.87 1012.83 1012.75 1012.63 1012.50 1012.38 1012.28 1012.21 1012.15 1012.09 1012.01 1011.90 1011.77 1011.65 1011.55 1011.50 1011.52 1011.59 1011.72 1011.87 1012.01 1012.13
1010.59 1011.75 1012.74 1013.51 1013.99 1014.18 1014.11 1013.86 1013.50 1013.13 1012.83 1012.65 1012.58 1012.63 1012.74 1012.88 1012.99 1013.06 1013.07 1013.05 1013.02 1013.00 1013.02 1013.07 1013.13 1013.19 1013.21 1013.18 1013.09 1012.96 1012.80 1012.65 1012.52 1012.44 1012.38 1012.34 1012.29 1012.23 1012.15 1012.05 1011.96 1011.89 1011.88 1011.92 1012.01 1012.14 1012.27 1012.38 1012.47
1010.61 1011.56 1012.33 1012.90 1013.24 1013.38 1013.37 1013.26 1013.12 1013.01 1012.95 1012.97 1013.04 1013.14 1013.24 1013.31 1013.33 1013.29 1013.24 1013.18 1013.15 1013.17 1013.24 1013.34 1013.43 1013.49 1013.50 1013.42 1013.28 1013.10 1012.90 1012.73 1012.59 1012.51 1012.47 1012.45 1012.44 1012.40 1012.34 1012.27 1012.20 1012.15 1012.15 1012.21 1012.29 1012.41 1012.51 1012.58 1012.63
1010.68 1011.40 1011.93 1012.29 1012.49 1012.60 1012.64 1012.67 1012.74 1012.87 1013.05 1013.25 1013.45 1013.61 1013.70 1013.70 1013.63 1013.51 1013.39 1013.29 1013.26 1013.30 1013.40 1013.52 1013.64 1013.69 1013.67 1013.56 1013.38 1013.15 1012.93 1012.74 1012.61 1012.54 1012.53 1012.54 1012.55 1012.54 1012.50 1012.43 1012.37 1012.33 1012.32 1012.35 1012.42 1012.50 1012.56 1012.60 1012.60
1010.89 1011.38 1011.68 1011.84 1011.91 1011.95 1012.03 1012.17 1012.41 1012.72 1013.08 1013.43 1013.73 1013.92 1014.00 1013.96 1013.82 1013.64 1013.46 1013.34 1013.31 1013.36 1013.47 1013.61 1013.72 1013.77 1013.72 1013.58 1013.37 1013.12 1012.89 1012.70 1012.59 1012.55 1012.56 1012.61 1012.65 1012.66 1012.63 1012.56 1012.49 1012.42 1012.38 1012.38 1012.40 1012.44 1012.46 1012.47 1012.45
1011.27 1011.57 1011.68 1011.66 1011.60 1011.57 1011.64 1011.84 1012.16 1012.58 1013.04 1013.47 1013.82 1014.03 1014.10 1014.02 1013.85 1013.64 1013.45 1013.32 1013.28 1013.34 1013.46 1013.59 1013.70 1013.73 1013.66 1013.51 1013.28 1013.03 1012.80 1012.64 1012.55 1012.55 1012.60 1012.68 1012.74 1012.77 1012.74 1012.67 1012.56 1012.46 1012.37 1012.32 1012.29 1012.29 1012.28 1012.26 1012.23
1011.82 1011.99 1011.94 1011.78 1011.61 1011.50 1011.52 1011.70 1012.03 1012.47 1012.94 1013.38 1013.73 1013.93 1013.99 1013.91 1013.73 1013.53 1013.35 1013.23 1013.21 1013.27 1013.39 1013.51 1013.60 1013.62 1013.54 1013.38 1013.16 1012.92 1012.72 1012.58 1012.53 1012.55 1012.64 1012.74 1012.82 1012.86 1012.83 1012.74 1012.62 1012.47 1012.34 1012.24 1012.17 1012.12 1012.09 1012.06 1012.03
1012.43 1012.53 1012.40 1012.16 1011.90 1011.72 1011.68 1011.79 1012.06 1012.43 1012.84 1013.22 1013.51 1013.68 1013.73 1013.66 1013.51 1013.34 1013.20 1013.12 1013.12 1013.19 1013.30 1013.41 1013.48 1013.49 1013.41 1013.25 1013.05 1012.84 1012.66 1012.54 1012.51 1012.56 1012.66 1012.78 1012.87 1012.92 1012.89 1012.80 1012.66 1012.49 1012.33 1012.19 1012.09 1012.01 1011.97 1011.94 1011.92
1012.98 1013.07 1012.93 1012.66 1012.38 1012.15 1012.04 1012.07 1012.23 1012.48 1012.76 1013.03 1013.24 1013.36 1013.40 1013.35 1013.25 1013.14 1013.06 1013.02 1013.04 1013.12 1013.22 1013.32 1013.37 1013.37 1013.30 1013.16 1012.99 1012.80 1012.65 1012.55 1012.53 1012.57 1012.66 1012.77 1012.87 1012.92 1012.90 1012.83 1012.69 1012.53 1012.36 1012.21 1012.09 1012.01 1011.96 1011.94 1011.93
1013.33 1013.45 1013.36 1013.14 1012.89 1012.68 1012.54 1012.49 1012.53 1012.63 1012.76 1012.89 1013.00 1013.06 1013.08 1013.05 1013.01 1012.97 1012.95 1012.96 1013.00 1013.07 1013.16 1013.24 1013.29 1013.29 1013.24 1013.14 1013.00 1012.85 1012.71 1012.61 1012.57 1012.58 1012.64 1012.72 1012.80 1012.86 1012.87 1012.83 1012.73 1012.60 1012.46 1012.32 1012.21 1012.12 1012.08 1012.06 1012.06
1013.38 1013.56 1013.57 1013.47 1013.32 1013.18 1013.05 1012.96 1012.90 1012.87 1012.84 1012.83 1012.82 1012.82 1012.82 1012.82 1012.83 1012.85 1012.88 1012.92 1012.98 1013.04 1013.11 1013.17 1013.22 1013.24 1013.23 1013.18 1013.09 1012.97 1012.84 1012.73 1012.65 1012.60 1012.60 1012.64 1012.70 1012.76 1012.81 1012.82 1012.79 1012.72 1012.62 1012.52 1012.42 1012.34 1012.29 1012.27 1012.28
1013.10 1013.35 1013.49 1013.57 1013.59 1013.57 1013.53 1013.44 1013.31 1013.16 1012.99 1012.84 1012.73 1012.66 1012.64 1012.66 1012.72 1012.79 1012.85 1012.91 1012.96 1013.00 1013.04 1013.09 1013.15 1013.20 1013.24 1013.25 1013.22 1013.15 1013.04 1012.91 1012.77 1012.66 1012.59 1012.57 1012.60 1012.67 1012.75 1012.83 1012.88 1012.88 1012.85 1012.79 1012.70 1012.63 1012.57 1012.54 1012.54
1012.53 1012.87 1013.17 1013.45 1013.68 1013.85 1013.91 1013.86 1013.70 1013.45 1013.17 1012.90 1012.68 1012.55 1012.51 1012.55 1012.64 1012.74 1012.84 1012.90 1012.92 1012.93 1012.94 1012.98 1013.04 1013.14 1013.24 1013.34 1013.39 1013.37 1013.29 1013.14 1012.96 1012.78 1012.63 1012.55 1012.55 1012.62 1012.75 1012.89 1013.02 1013.11 1013.14 1013.11 1013.04 1012.96 1012.88 1012.83 1012.80
1011.81 1012.22 1012.70 1013.20 1013.67 1014.03 1014.22 1014.23 1014.05 1013.72 1013.33 1012.94 1012.63 1012.44 1012.38 1012.43 1012.55 1012.69 1012.80 1012.85 1012.85 1012.82 1012.80 1012.81 1012.89 1013.03 1013.22 1013.40 1013.55 1013.61 1013.57 1013.43 1013.21 1012.98 1012.77 1012.63 1012.59 1012.67 1012.82 1013.03 1013.23 1013.39 1013.47 1013.47 1013.41 1013.31 1013.20 1013.11 1013.06
1011.08 1011.59 1012.24 1012.96 1013.65 1014.19 1014.50 1014.54 1014.33 1013.92 1013.40 1012.90 1012.50 1012.26 1012.18 1012.26 1012.41 1012.58 1012.71 1012.76 1012.74 1012.68 1012.62 1012.61 1012.70 1012.89 1013.15 1013.44 1013.68 1013.84 1013.86 1013.75 1013.53 1013.26 1013.00 1012.82 1012.76 1012.83 1013.01 1013.25 1013.51 1013.72 1013.84 1013.85 1013.78 1013.64 1013.49 1013.36 1013.28
1010.51 1011.12 1011.95 1012.86 1013.73 1014.41 1014.79 1014.83 1014.54 1014.01 1013.36 1012.73 1012.24 1011.94 1011.86 1011.96 1012.17 1012.39 1012.56 1012.62 1012.60 1012.51 1012.42 1012.40 1012.50 1012.73 1013.05 1013.43 1013.78 1014.03 1014.13 1014.08 1013.88 1013.61 1013.33 1013.12 1013.04 1013.10 1013.28 1013.55 1013.84 1014.07 1014.20 1014.22 1014.12 1013.96 1013.76 1013.60 1013.49
1010.23 1010.97 1011.94 1013.02 1014.01 1014.76 1015.14 1015.11 1014.69 1013.99 1013.18 1012.40 1011.80 1011.45 1011.37 1011.52 1011.79 1012.09 1012.32 1012.44 1012.43 1012.34 1012.24 1012.21 1012.31 1012.55 1012.93 1013.38 1013.82 1014.16 1014.36 1014.37 1014.22 1013.97 1013.70 1013.49 1013.39 1013.44 1013.62 1013.89 1014.17 1014.41 1014.54 1014.54 1014.43 1014.23 1014.01 1013.82 1013.70
1010.27 1011.14 1012.26 1013.45 1014.51 1015.25 1015.55 1015.37 1014.77 1013.86 1012.84 1011.90 1011.19 1010.79 1010.72 1010.92 1011.28 1011.68 1012.01 1012.20 1012.25 1012.18 1012.09 1012.05 1012.15 1012.40 1012.80 1013.30 1013.80 1014.23 1014.50 1014.59 1014.51 1014.31 1014.07 1013.86 1013.76 1013.79 1013.95 1014.20 1014.47 1014.69 1014.81 1014.81 1014.68 1014.47 1014.24 1014.04 1013.92
1010.59 1011.60 1012.84 1014.10 1015.15 1015.82 1015.98 1015.60 1014.76 1013.61 1012.38 1011.26 1010.43 1009.97 1009.91 1010.17 1010.64 1011.17 1011.62 1011.92 1012.05 1012.04 1011.97 1011.94 1012.03 1012.28 1012.68 1013.20 1013.74 1014.22 1014.56 1014.72 1014.71 1014.57 1014.37 1014.18 1014.08 1014.10 1014.24 1014.46 1014.70 1014.90 1015.01 1015.00 1014.88 1014.68 1014.46 1014.28 1014.18
1011.06 1012.22 1013.55 1014.83 1015.83 1016.38 1016.35 1015.74 1014.66 1013.27 1011.82 1010.53 1009.59 1009.08 1009.03 1009.35 1009.92 1010.56 1011.15 1011.57 1011.81 1011.88 1011.87 1011.86 1011.95 1012.19 1012.58 1013.09 1013.64 1014.15 1014.54 1014.77 1014.82 1014.73 1014.58 1014.43 1014.33 1014.34 1014.45 1014.64 1014.86 1015.04 1015.14 1015.14 1015.04 1014.88 1014.70 1014.56 1014.48
1011.53 1012.81 1014.20 1015.47 1016.39 1016.79 1016.57 1015.76 1014.45 1012.86 1011.23 1009.80 1008.76 1008.21 1008.15 1008.51 1009.15 1009.90 1010.61 1011.16 1011.51 1011.68 1011.74 1011.78 1011.88 1012.12 1012.50 1012.99 1013.53 1014.05 1014.46 1014.73 1014.84 1014.81 1014.71 1014.59 1014.51 1014.51 1014.61 1014.77 1014.95 1015.12 1015.23 1015.25 1015.20 1015.09 1014.97 1014.88 1014.86
1011.85 1013.21 1014.62 1015.84 1016.66 1016.93 1016.56 1015.59 1014.13 1012.40 1010.66 1009.15 1008.04 1007.45 1007.37 1007.74 1008.42 1009.24 1010.02 1010.68 1011.14 1011.41 1011.56 1011.67 1011.81 1012.06 1012.43 1012.90 1013.43 1013.94 1014.37 1014.66 1014.82 1014.84 1014.79 1014.71 1014.65 1014.66 1014.73 1014.88 1015.04 1015.21 1015.32 1015.38 1015.38 1015.34 1015.30 1015.28 1015.30
1011.92 1013.29 1014.67 1015.82 1016.55 1016.72 1016.25 1015.21 1013.70 1011.95 1010.19 1008.66 1007.53 1006.91 1006.80 1007.14 1007.80 1008.61 1009.43 1010.14 1010.69 1011.06 1011.31 1011.50 1011.71 1012.00 1012.38 1012.85 1013.36 1013.86 1014.29 1014.61 1014.80 1014.87 1014.87 1014.83 1014.80 1014.82 1014.90 1015.03 1015.19 1015.35 1015.48 1015.58 1015.63 1015.66 1015.69 1015.73 1015.81
1011.67 1013.00 1014.29 1015.35 1015.99 1016.11 1015.64 1014.62 1013.19 1011.53 1009.86 1008.40 1007.30 1006.67 1006.52 1006.78 1007.36 1008.11 1008.89 1009.60 1010.19 1010.64 1010.98 1011.27 1011.57 1011.92 1012.34 1012.83 1013.34 1013.84 1014.27 1014.60 1014.82 1014.94 1014.99 1015.00 1015.01 1015.06 1015.15 1015.28 1015.44 1015.60 1015.75 1015.87 1015.97 1016.06 1016.15 1016.25 1016.36
1011.17 1012.37 1013.53 1014.47 1015.04 1015.15 1014.75 1013.87 1012.63 1011.17 1009.71 1008.40 1007.39 1006.77 1006.56 1006.72 1007.15 1007.77 1008.44 1009.09 1009.67 1010.17 1010.59 1010.98 1011.38 1011.82 1012.31 1012.83 1013.36 1013.87 1014.31 1014.66 1014.91 1015.07 1015.17 1015.24 1015.31 1015.39 1015.51 1015.66 1015.82 1015.98 1016.14 1016.28 1016.41 1016.53 1016.65 1016.79 1016.93
Thickness
5829 5825 5820 5806 5782 5759 5754 5766 5775 5775 5775 5781 5783 5777 5768 5761 5752 5745 5766 5774 5775 5774 5775 5775 5776 5777 5778 5778 5779 5779 5779 5780 5780 5781 5781 5781 5781 5781 5780 5780 5780 5779 5779 5778 5778 5777 5775 5774 5772
5831 5825 5813 5796 5767 5745 5753 5771 5774 5778 5782 5786 5783 5777 5769 5764 5769 5767 5770 5774 5776 5775 5775 5776 5777 5777 5777 5778 5778 5778 5778 5779 5779 5779 5779 5779 5779 5779 5779 5779 5779 5779 5778 5778 5777 5776 5774 5773 5772
5833 5827 5803 5782 5764 5755 5760 5777 5781 5787 5791 5789 5780 5778 5771 5765 5771 5771 5775 5777 5776 5776 5776 5776 5777 5777 5777 5777 5777 5778 5778 5778 5778 5778 5779 5779 5778 5779 5778 5778 5778 5778 5777 5776 5775 5774 5773 5772 5771
5830 5814 5798 5777 5768 5780 5783 5786 5790 5786 5787 5789 5782 5771 5772 5778 5777 5777 5779 5778 5776 5776 5777 5777 5777 5777 5777 5777 5777 5778 5778 5778 5778 5777 5778 5778 5778 5778 5777 5777 5777 5777 5776 5775 5774 5773 5772 5771 5771
5828 5805 5783 5771 5777 5790 5797 5799 5797 5787 5784 5782 5781 5767 5766 5779 5783 5781 5779 5778 5776 5776 5777 5777 5777 5777 5777 5777 5778 5777 5778 5778 5778 5778 5777 5778 5777 5777 5776 5776 5775 5775 5774 5773 5773 5772 5770 5770 5769
5815 5801 5774 5767 5782 5794 5800 5804 5799 5789 5783 5782 5779 5769 5767 5780 5780 5780 5780 5779 5778 5777 5777 5776 5776 5776 5777 5777 5777 5777 5777 5777 5778 5778 5778 5777 5777 5776 5775 5775 5774 5774 5773 5772 5772 5771 5769 5768 5767
5811 5794 5780 5782 5784 5789 5799 5808 5799 5789 5783 5784 5785 5769 5769 5777 5782 5783 5781 5779 5778 5777 5777 5776 5776 5776 5776 5776 5778 5777 5777 5776 5776 5776 5776 5776 5776 5775 5775 5774 5774 5773 5773 5772 5771 5770 5768 5767 5766
5828 5803 5788 5788 5787 5789 5805 5809 5805 5797 5789 5796 5792 5772 5768 5779 5786 5784 5781 5779 5777 5777 5776 5776 5775 5775 5775 5776 5776 5776 5776 5776 5775 5775 5775 5775 5774 5774 5774 5773 5773 5773 5772 5772 5771 5770 5768 5767 5766
5838 5798 5784 5792 5793 5796 5810 5805 5805 5809 5800 5796 5796 5789 5787 5791 5788 5782 5777 5774 5774 5775 5775 5775 5775 5774 5774 5775 5774 5774 5774 5774 5774 5774 5774 5773 5773 5772 5772 5772 5772 5772 5771 5771 5771 5769 5768 5767 5766
5826 5795 5802 5818 5817 5811 5813 5809 5805 5798 5791 5788 5789 5792 5794 5791 5786 5780 5775 5771 5771 5772 5774 5775 5775 5774 5774 5774 5774 5773 5773 5772 5772 5772 5772 5771 5771 5771 5771 5771 5771 5771 5771 5770 5770 5769 5768 5767 5766
5831 5815 5825 5830 5831 5826 5816 5812 5812 5797 5784 5788 5787 5788 5791 5789 5785 5781 5778 5776 5776 5776 5776 5777 5776 5775 5775 5774 5774 5773 5772 5771 5771 5771 5771 5770 5770 5770 5769 5770 5769 5770 5769 5769 5768 5768 5767 5766 5765
5836 5836 5839 5834 5836 5829 5820 5815 5808 5803 5799 5805 5803 5799 5794 5789 5785 5783 5781 5780 5779 5778 5778 5778 5779 5777 5776 5775 5774 5773 5772 5771 5770 5770 5770 5770 5769 5769 5768 5768 5769 5768 5768 5768 5767 5766 5766 5765 5764
5837 5836 5842 5842 5838 5833 5826 5817 5812 5807 5813 5813 5808 5802 5796 5791 5788 5788 5787 5785 5783 5780 5779 5780 5780 5779 5777 5776 5775 5773 5772 5772 5771 5771 5770 5770 5769 5768 5768 5768 5767 5767 5767 5767 5766 5765 5765 5764 5763
5839 5839 5839 5839 5835 5833 5823 5817 5814 5809 5816 5812 5807 5801 5798 5794 5792 5790 5788 5785 5784 5783 5782 5782 5781 5780 5779 5777 5776 5774 5773 5772 5771 5770 5770 5770 5769 5769 5768 5767 5767 5766 5766 5766 5766 5765 5765 5763 5762
5844 5831 5829 5832 5832 5828 5823 5805 5810 5817 5817 5809 5806 5804 5801 5798 5796 5793 5791 5789 5788 5786 5785 5784 5782 5781 5780 5778 5777 5775 5773 5772 5771 5770 5770 5770 5769 5769 5768 5767 5767 5767 5767 5767 5766 5765 5764 5763 5761
5831 5817 5805 5822 5828 5826 5812 5787 5810 5820 5815 5807 5806 5805 5801 5799 5800 5799 5797 5794 5792 5789 5787 5786 5786 5782 5780 5779 5777 5776 5774 5773 5772 5771 5770 5770 5769 5769 5768 5768 5767 5767 5767 5767 5765 5764 5762 5760 5759
5808 5795 5797 5811 5828 5825 5810 5794 5811 5820 5815 5808 5807 5805 5803 5800 5800 5801 5801 5799 5796 5793 5789 5786 5785 5783 5782 5780 5778 5777 5775 5773 5772 5771 5770 5770 5769 5769 5768 5767 5767 5767 5766 5766 5766 5763 5761 5758 5756
5792 5794 5799 5802 5820 5821 5807 5803 5813 5819 5816 5810 5808 5805 5803 5801 5802 5804 5804 5802 5799 5796 5792 5789 5786 5784 5783 5781 5778 5776 5774 5773 5772 5771 5770 5770 5769 5769 5768 5767 5767 5767 5765 5764 5763 5761 5760 5758 5755
5817 5807 5801 5810 5824 5816 5805 5803 5810 5817 5814 5810 5807 5804 5803 5803 5807 5808 5806 5804 5800 5796 5792 5789 5786 5784 5783 5779 5776 5773 5771 5771 5771 5771 5771 5770 5770 5769 5769 5768 5767 5766 5764 5762 5761 5759 5757 5754 5754
5820 5807 5805 5813 5825 5815 5803 5802 5812 5817 5817 5816 5813 5809 5807 5806 5806 5806 5805 5804 5800 5796 5794 5791 5788 5786 5784 5782 5780 5777 5774 5773 5772 5772 5772 5771 5771 5770 5770 5769 5768 5766 5764 5761 5760 5758 5754 5752 5752
5818 5810 5808 5808 5816 5815 5801 5790 5800 5812 5818 5818 5819 5818 5816 5812 5809 5808 5806 5804 5802 5798 5796 5795 5791 5789 5787 5785 5782 5779 5775 5773 5771 5770 5770 5771 5771 5770 5770 5770 5768 5766 5764 5761 5760 5758 5754 5750 5750
5811 5831 5827 5816 5797 5782 5791 5763 5786 5798 5804 5811 5815 5818 5818 5818 5814 5812 5810 5806 5805 5803 5800 5797 5794 5791 5789 5787 5782 5777 5772 5768 5769 5770 5770 5771 5772 5771 5771 5770 5768 5766 5764 5762 5760 5759 5756 5753 5748
5827 5840 5830 5817 5796 5780 5782 5767 5778 5797 5795 5805 5814 5819 5821 5822 5819 5816 5814 5811 5810 5808 5803 5799 5795 5792 5791 5788 5783 5779 5775 5773 5773 5772 5770 5770 5770 5770 5770 5769 5767 5765 5763 5761 5760 5758 5756 5754 5750
5841 5829 5816 5800 5782 5762 5775 5767 5771 5791 5802 5810 5817 5822 5823 5824 5822 5819 5818 5815 5811 5809 5805 5801 5796 5793 5791 5788 5784 5781 5777 5775 5773 5770 5769 5768 5769 5769 5768 5767 5766 5764 5762 5760 5759 5758 5756 5754 5752
5828 5797 5768 5761 5749 5754 5777 5773 5779 5810 5822 5823 5823 5825 5827 5827 5824 5820 5816 5813 5810 5807 5804 5801 5797 5793 5792 5789 5786 5783 5781 5778 5774 5772 5769 5768 5766 5766 5767 5767 5765 5764 5762 5760 5759 5757 5755 5754 5751
5817 5800 5767 5750 5746 5754 5772 5769 5794 5822 5831 5834 5832 5830 5828 5825 5824 5822 5819 5816 5813 5810 5806 5802 5798 5795 5793 5790 5787 5784 5782 5779 5776 5774 5772 5769 5768 5767 5767 5766 5765 5764 5762 5760 5758 5756 5755 5753 5751
5815 5802 5802 5774 5762 5749 5758 5778 5801 5821 5823 5827 5829 5827 5825 5826 5825 5823 5821 5818 5816 5812 5809 5805 5800 5796 5793 5791 5788 5785 5783 5780 5777 5776 5774 5771 5770 5768 5767 5766 5765 5763 5761 5759 5758 5755 5754 5752 5751
5827 5814 5787 5768 5748 5740 5753 5766 5777 5799 5809 5818 5822 5823 5824 5825 5824 5824 5822 5820 5818 5815 5811 5807 5802 5798 5795 5792 5789 5787 5784 5781 5779 5776 5773 5772 5771 5769 5767 5765 5763 5762 5760 5759 5756 5754 5753 5751 5749
5813 5805 5787 5768 5764 5744 5739 5760 5804 5806 5813 5814 5818 5823 5826 5825 5823 5823 5821 5821 5818 5814 5810 5806 5802 5797 5794 5792 5789 5786 5783 5782 5779 5776 5774 5773 5771 5768 5766 5764 5762 5760 5759 5757 5755 5752 5751 5749 5747
5818 5806 5787 5767 5760 5756 5750 5765 5818 5816 5818 5819 5819 5821 5824 5825 5824 5823 5820 5818 5816 5813 5810 5805 5802 5798 5795 5791 5788 5785 5783 5781 5778 5776 5775 5773 5770 5768 5765 5763 5761 5759 5757 5756 5753 5751 5750 5747 5745